This is the latest recevied weather packets stored in our database for station/object OK0EK-12. If no packets are shown the sender has not sent any weather packets the latest 10 day(s).
| Time | Temp. | Humidity | Pressure | Rain* | Wind** | Luminosity | Snow |
|---|---|---|---|---|---|---|---|
| 1777176404 | 5.56° C | 55% | 1097.2 hPa | - | - | - | - |
| 1777175804 | 5° C | 56% | 1097 hPa | - | - | - | - |
| 1777175204 | 5° C | 56% | 1096.9 hPa | - | - | - | - |
| 1777174603 | 5.56° C | 55% | 1096.6 hPa | - | - | - | - |
| 1777174003 | 5.56° C | 54% | 1096.4 hPa | - | - | - | - |
| 1777173403 | 5.56° C | 54% | 1096.1 hPa | - | - | - | - |
| 1777172803 | 6.11° C | 52% | 1096 hPa | - | - | - | - |
| 1777172203 | 6.67° C | 51% | 1095.6 hPa | - | - | - | - |
| 1777171603 | 7.22° C | 50% | 1094.9 hPa | - | - | - | - |
| 1777171003 | 7.78° C | 53% | 1094.4 hPa | - | - | - | - |
| 1777170402 | 8.33° C | 56% | 1094 hPa | - | - | - | - |
| 1777169802 | 8.89° C | 55% | 1093.6 hPa | - | - | - | - |
| 1777169202 | 10° C | 53% | 1093.2 hPa | - | - | - | - |
| 1777168602 | 10° C | 49% | 1092.6 hPa | - | - | - | - |
| 1777168002 | 10° C | 48% | 1092.4 hPa | - | - | - | - |
| 1777167402 | 10.56° C | 45% | 1092.3 hPa | - | - | - | - |
| 1777166802 | 10.56° C | 45% | 1091.9 hPa | - | - | - | - |
| 1777166202 | 10.56° C | 43% | 1091.6 hPa | - | - | - | - |
| 1777165601 | 10° C | 48% | 1091.4 hPa | - | - | - | - |
| 1777165001 | 10° C | 50% | 1091.3 hPa | - | - | - | - |
| 1777164401 | 10° C | 49% | 1091.2 hPa | - | - | - | - |
| 1777163801 | 9.44° C | 49% | 1091.2 hPa | - | - | - | - |
| 1777163201 | 10° C | 48% | 1091.1 hPa | - | - | - | - |
| 1777162601 | 9.44° C | 51% | 1090.9 hPa | - | - | - | - |
| 1777162001 | 9.44° C | 50% | 1090.8 hPa | - | - | - | - |
* Rain since midnight (hover to see other rain measurements)
** Current wind speed in m/s (hover to see current wind gust speed)